www.pogodaiklimat.ru

Погода и климат >> Архив погоды >> Саудовская Аравия >> Sharorah


ПОГОДА в Sharorah

  • Прогноз погоды в Sharorah
  • Монитор погоды в Sharorah
  • Климат города

АРХИВ ПОГОДЫ в Sharorah

Время (UTC), дата Ветер
(напр.,м/с)
 
Видим.   Явления Облачность Т
(С)
Тd
(С)
f
(%)
Тe
(С)
Тes
(С)
Комфортность P
(гПа)
Po
(гПа)
Тmin
(С)
Tmax
(С)
R
(мм)
R24
(мм)
S
(см)
03 9.07 В 4 10 км ясно +29.8 +9.7 29 +25 +25 комфорт 998.5 922.3
06 9.07 В 5 10 км ясно +35.4 +11.0 23 +35 +41 очень
жарко
998.6 922.9 +28.8
09 9.07 СВ 5 10 км 3/3 1200 м
[Sc diur, vesp]
+40.6 +10.0 16 +39 +47 очень
жарко
997.3 922.0
12 9.07 В 7 10 км 5/3 1200 м
[Sc diur, vesp Ac trans]
+42.3 +12.0 17 +42 +43 опасность
перегрева
995.7 920.2
15 9.07 СВ 6 10 км 5/4 1200 м
[Sc diur, vesp Ac trans]
+40.3 +11.0 17 +39 +39 очень
жарко
996.3 920.3
18 9.07 В 3 10 км ясно +37.4 +9.0 18 +36 +36 очень
жарко
997.8 922.0 +43.5
21 9.07 штиль 0 10 км ясно +33.0 +9.0 23 +32 +32 жарко 997.9 922.2
00 10.07 Ю 2 10 км ясно +30.1 +8.0 25 +29 +29 жарко 997.8 921.9
03 10.07 З 2 10 км 6/4 1200 м
[Sc diur, vesp Ac trans]
+29.3 +9.0 28 +29 +29 жарко 998.8 922.5
06 10.07 ЮЗ 4 10 км 4/4 1200 м
[Sc diur, vesp]
+35.3 +10.0 21 +34 +40 очень
жарко
999.6 923.6 +28.0
09 10.07 СВ 3 8000 м пыль ясно +40.6 +11.0 17 +39 +59 опасность
солнечного
удара
998.0 922.3
12 10.07 С 4 7000 м пыль ясно +41.7 +10.0 15 +40 +48 очень
жарко
995.9 920.1
15 10.07 С 5 10 км ясно +40.6 +9.0 15 +39 +39 очень
жарко
995.9 919.9
18 10.07 В 2 10 км ясно +36.8 +7.0 16 +34 +34 очень
жарко
997.5 921.6 +44.0
21 10.07 З 3 10 км ясно +33.4 +6.0 18 +31 +31 жарко 996.8 921.2
00 11.07 штиль 0 10 км ясно +30.3 +4.0 19 +28 +28 жарко 996.0 920.2
03 11.07 штиль 0 10 км ясно +29.0 +5.0 22 +28 +28 жарко 997.5 921.3
06 11.07 Ю 3 10 км 8/4 1200 м
[Sc diur, vesp Ac lent]
+33.5 +6.0 18 +31 +34 жарко 998.3 922.2 +27.5
09 11.07 С 4 1500 м пыль 4/3 1200 м
[Sc diur, vesp Ac lent]
+37.2 +7.0 16 +35 +44 очень
жарко
996.8 920.8
12 11.07 С 5 2000 м пыль 4/0
[Ac lent]
+38.6 +8.0 16 +37 +40 очень
жарко
995.0 918.9
15 11.07 СЗ 4 3000 м пыль ясно +37.7 +9.0 18 +36 +36 очень
жарко
995.0 918.7
18 11.07 З 3 3000 м пыль ясно +36.9 +9.0 18 +35 +35 очень
жарко
996.0 920.1 +40.0
21 11.07 З 3 4000 м пыль ясно +33.2 +6.0 18 +31 +31 жарко 995.9 920.0
00 12.07 З 2 4000 м пыль ясно +31.2 +6.0 21 +30 +30 жарко 994.7 918.8
03 12.07 Ю 3 4000 м пыль ясно +28.5 +5.0 22 +27 +27 жарко 996.0 919.6
06 12.07 СЗ 3 7000 м пыль ясно +35.4 +8.0 19 +34 +44 очень
жарко
996.0 920.3 +28.0
09 12.07 С 5 8000 м пыль ясно +40.0 +9.0 16 +38 +49 очень
жарко
995.2 919.6
12 12.07 С 5 10 км ясно +43.8 +11.0 15 +43 +49 опасность
перегрева
992.9 917.7
15 12.07 З 8 10 км ясно +42.1 +11.0 16 +41 +41 опасность
перегрева
993.3 917.6
18 12.07 СЗ 2 10 км ясно +39.4 +9.0 16 +38 +38 очень
жарко
994.3 919.0 +45.0
21 12.07 штиль 0 10 км ясно +34.2 +7.0 19 +32 +32 жарко 994.6 919.2
00 13.07 Ю 3 10 км ясно +30.5 +7.0 23 +29 +29 жарко 993.7 918.4
03 13.07 Ю 2 9000 м мгла ясно +27.4 +5.0 24 +26 +27 жарко 995.2 919.2
06 13.07 СЗ 5 7000 м пыль ясно +35.0 +9.0 20 +33 +40 жарко 995.8 920.3 +28.5
09 13.07 С 5 7000 м пыль ясно +41.3 +9.0 14 +39 +50 очень
жарко
994.6 919.3
12 13.07 С 4 7000 м пыль ясно +43.3 +9.0 13 +41 +49 опасность
перегрева
992.8 917.5
15 13.07 С 5 7000 м пыль ясно +41.7 +12.0 17 +41 +41 опасность
перегрева
993.5 917.6
18 13.07 СЗ 2 7000 м мгла ясно +39.0 +9.0 16 +37 +37 очень
жарко
994.6 919.2 +45.0
21 13.07 З 3 5000 м пыль ясно +36.6 +8.0 17 +35 +35 очень
жарко
994.6 919.6
00 14.07 СЗ 4 6000 м пыль ясно +32.9 +8.0 21 +31 +31 жарко 993.9 918.8
03 14.07 штиль 0 7000 м мгла ясно +28.7 +9.0 29 +28 +29 жарко 996.0 920.1
06 14.07 СЗ 5 7000 м пыль ясно +34.7 +11.0 24 +34 +41 очень
жарко
996.9 921.3 +27.7
09 14.07 С 7 4000 м пыль ясно +40.5 +10.0 16 +39 +46 очень
жарко
995.0 919.9
12 14.07 С 7 6000 м пыль ясно +44.3 +11.0 14 +43 +46 опасность
перегрева
993.4 918.4
15 14.07 С 5 6000 м пыль ясно +42.0 +10.0 15 +40 +41 очень
жарко
994.1 918.3
18 14.07 С 4 6000 м пыль ясно +37.6 +9.0 18 +36 +36 очень
жарко
996.0 920.3 +45.3
21 14.07 штиль 0 7000 м мгла ясно +34.0 +7.0 19 +32 +32 жарко 996.0 920.5
00 15.07 штиль 0 6000 м мгла ясно +32.4 +8.0 22 +31 +31 жарко 995.1 919.9
03 15.07 штиль 0 6000 м мгла ясно +28.3 +9.0 30 +28 +29 жарко 996.7 920.7
06 15.07 ЮЗ 5 9000 м пыль ясно +34.0 +8.0 20 +32 +39 жарко 998.2 922.2 +28.0
09 15.07 С 5 10 км ясно +40.3 +10.0 16 +39 +51 опасность
солнечного
удара
996.8 921.2
12 15.07 СВ 5 10 км ясно +42.7 +11.0 15 +41 +47 опасность
перегрева
994.8 919.5
15 15.07 С 5 10 км ясно +40.0 +10.0 17 +39 +39 очень
жарко
995.5 919.3
18 15.07 СВ 4 10 км ясно +38.6 +10.0 18 +37 +37 очень
жарко
996.7 921.0 +44.0
21 15.07 СВ 3 10 км ясно +35.4 +8.0 19 +34 +34 очень
жарко
996.5 921.1
00 16.07 З 3 10 км ясно +32.3 +8.0 22 +31 +31 жарко 995.7 920.3

 

Местоположение метеостанции Sharorah (Саудовская Аравия): широта 17.47 долгота 47.10 высота над уровнем моря 725 м.

В архиве по умолчанию представлена погода в Sharorah за последнюю неделю. Архивные данные за месяц целиком и за предыдущие месяцы, начиная с января 2011 года, Вы можете получить, выбрав интересующий диапазон дат из раскрывающегося списка и нажав кнопку "Ввод!".


*Определитесь, кто Вы:
робот инопланетянин человек

Внимание! Время в таблицах - всемирное. Для получения местного времени необходимо прибавить поправку, которая в Sharorah равна 3 ч.

Смотрите также архив погоды в соседних городах и на ближайших метеорологических станциях:

Погода в Seiyoun (Йемен) (257 км)
Погода в Najran (Саудовская Аравия) (285 км)
Погода в Marib (Йемен) (295 км)
Погода в Sana (Йемен) (379 км)
Погода в Wadi Al Dawasir Airport (Саудовская Аравия) (389 км)
Погода в Riyan (Йемен) (395 км)
Погода в Hajjah (Йемен) (417 км)
Погода в Dhamar (Йемен) (431 км)
Погода в Khamis Mushait (Саудовская Аравия) (464 км)
Погода в Abha (Саудовская Аравия) (479 км)

Пояснения к столбцам:

Ветер - указаны скорость ветра в м/с - средняя за 10 мин, порывы в срок и между сроками (в фигурных скобках) и направление, откуда дует ветер: С - северный, СВ - северо-восточный, В - восточный, ЮВ - юго-восточный, Ю - южный, ЮЗ - юго-западный, З - западный, СЗ - северо-западный.
Видимость - горизонтальная дальность видимости в метрах или километрах. При видимости от 1 до 10 км при отсутствии осадков обычно наблюдается дымка, при ухудшении видимости до 1 км и менее - туман. В сухую погоду видимость может ухудшаться дымом, пылью или мглою.
Явления - указаны атмосферные явления, наблюдавшиеся в срок или в последний час перед сроком; фигурными скобками обозначены явления, наблюдавшиеся между сроками (за 1-3 часа до срока); квадратными скобками обозначены град или гололедные отложения с указанием их диаметра в мм.
Облачность - указаны через наклонную черту общая и нижняя облачность в баллах и высота нижней границы облаков в метрах; квадратными скобками обозначены формы облаков: Ci - перистые, Cs - перисто-слоистые, Cc - перисто-кучевые, Ac - высококучевые, As - высокослоистые, Sc - слоисто-кучевые, Ns - слоисто-дождевые, Cu - кучевые, Cb - кучево-дождевые. Подробнее классификацию облаков см. в Атласе облаков (PDF).
T - Температура воздуха - температура, измеренная на высоте 2 м над землей.
Td - Температура точки росы - температура, при понижении до которой содержащийся в воздухе водяной пар достигнет насыщения.
f - Относительная влажность воздуха - влажноcть воздуха, измеренная на высоте 2 м над землей.
Te - Эффективная температура - температура, которую ощущает одетый по сезону человек в тени. Характеристика душности погоды. При расчете учитывается влияние влажности воздуха и скорости ветра на теплоощущения человека.
Tes - Эффективная температура на солнце - температура, которую ощущает человек, с поправкой на солнечный нагрев. Характеристика знойности погоды. Зависит от высоты солнца над горизонтом, облачности и скорости ветра. Ночью, в пасмурную погоду, а также при ветре 12 м/с и более поправка равна нулю.
P - Атмосферное давление - приведенное к уровню моря атмосферное давление.
Po - Атмосферное давление - измеренное на уровне метеостанции атмосферное давление.
Tmin - Минимальная температура - минимум температуры воздуха на высоте 2 м над землей.
Tmax - Максимальная температура - максимум температуры воздуха на высоте 2 м над землей.
R - Количество осадков - Количество выпавших осадков за период времени, мм. При наведении курсора мыши на число - период времени, за который выпало указанное количество осадков.
R24 - Количество осадков - Количество выпавших осадков за 24 часа, мм.
S - Снежный покров - Высота снежного покрова, см. При наведении курсора мыши на число - состояние снежного покрова и степень покрытия местности в баллах.